Location: Gleizolles
(44.4833°N, 6.7667°E)
Time: 21:23:57
(UTC+00:00)

A-11 Canister half - Pass Details

Date: 03 July 2024
Orbit: 1524 x 1684 km, 47.3° (Epoch: 18 July)

Event Time Altitude Azimuth Distance (km) Brightness Sun altitude
Rises 09:37:46 0° 235° (SW) 4,820 11.5 57.4°
Reaches altitude 10° 09:40:55 10° 234° (SW) 3,814 11.1 57.9°
Maximum altitude 09:50:31 73° 152° (SSE) 1,623 11.0 59.3°
Drops below altitude 10° 09:59:51 10° 70° (ENE) 3,713 11.4 60.6°
Sets 10:02:52 0° 69° (ENE) 4,687 11.7 61.0°
